�������l�o���
Date,Time,MP-1(��Sv/h),MP-2(��Sv/h),MP-3(��Sv/h),MP-4(��Sv/h),MP-5(��Sv/h),MP-6(��Sv/h),MP-7(��Sv/h),MP-8(��Sv/h),����,����(m/s),���J
2018/09/15,00:00,0.790,1.185,0.833,1.469,1.070,0.464,0.809,0.768,��,3.9,��
2018/09/15,00:10,0.791,1.185,0.833,1.468,1.072,0.466,0.810,0.767,��,4.3,��
2018/09/15,00:20,0.789,1.187,0.832,1.470,1.074,0.464,0.812,0.768,��쐼,3.6,��
2018/09/15,00:30,0.790,1.188,0.834,1.471,1.075,0.465,0.810,0.769,�쐼,2.9,��
2018/09/15,00:40,0.788,1.188,0.834,1.469,1.073,0.467,0.809,0.769,�쐼,2.3,��
2018/09/15,00:50,0.792,1.186,0.834,1.470,1.074,0.466,0.809,0.768,�쐼,1.9,��
2018/09/15,01:00,0.790,1.187,0.837,1.472,1.074,0.467,0.810,0.768,��쐼,1.7,��
2018/09/15,01:10,0.791,1.185,0.835,1.472,1.071,0.467,0.810,0.767,��,1.7,��
2018/09/15,01:20,0.791,1.186,0.833,1.470,1.072,0.465,0.810,0.769,��,1.5,��
2018/09/15,01:30,0.792,1.185,0.836,1.471,1.071,0.466,0.811,0.769,��쓌,2.3,��
2018/09/15,01:40,0.791,1.186,0.835,1.469,1.071,0.467,0.810,0.769,��쓌,2.0,��
2018/09/15,01:50,0.789,1.184,0.834,1.468,1.071,0.464,0.810,0.768,��쓌,1.5,��
2018/09/15,02:00,0.790,1.186,0.834,1.471,1.072,0.464,0.811,0.767,��,2.3,��
2018/09/15,02:10,0.791,1.187,0.834,1.468,1.072,0.466,0.813,0.768,��,2.5,��
2018/09/15,02:20,0.792,1.186,0.834,1.471,1.073,0.467,0.810,0.767,��쐼,2.2,��
2018/09/15,02:30,0.791,1.185,0.832,1.469,1.072,0.465,0.811,0.769,��,1.7,��
2018/09/15,02:40,0.790,1.185,0.833,1.471,1.072,0.465,0.813,0.770,��쐼,2.0,��
2018/09/15,02:50,0.790,1.184,0.835,1.470,1.071,0.464,0.810,0.768,��,4.6,��
2018/09/15,03:00,0.790,1.186,0.834,1.470,1.073,0.464,0.810,0.769,��,3.3,��
2018/09/15,03:10,0.790,1.185,0.835,1.470,1.071,0.465,0.810,0.770,��쐼,1.2,��
2018/09/15,03:20,0.791,1.188,0.834,1.472,1.072,0.466,0.811,0.768,���k��,1.4,��
2018/09/15,03:30,0.790,1.184,0.834,1.468,1.070,0.464,0.810,0.767,�쐼,1.7,��
2018/09/15,03:40,0.789,1.183,0.834,1.469,1.071,0.464,0.808,0.770,��,3.7,��
2018/09/15,03:50,0.789,1.184,0.833,1.473,1.074,0.465,0.810,0.768,��쐼,4.0,��
2018/09/15,04:00,0.789,1.186,0.833,1.469,1.074,0.466,0.812,0.769,��쐼,2.6,��
2018/09/15,04:10,0.791,1.186,0.834,1.469,1.071,0.466,0.811,0.768,��쐼,2.8,��
2018/09/15,04:20,0.790,1.186,0.833,1.470,1.074,0.465,0.809,0.767,��쐼,1.9,��
2018/09/15,04:30,0.788,1.186,0.832,1.471,1.073,0.465,0.810,0.769,�쐼,1.9,��
2018/09/15,04:40,0.789,1.186,0.834,1.471,1.072,0.466,0.811,0.768,��쐼,1.7,��
2018/09/15,04:50,0.791,1.186,0.833,1.469,1.072,0.463,0.810,0.767,�쐼,1.2,��
2018/09/15,05:00,0.789,1.185,0.833,1.471,1.073,0.466,0.811,0.770,��,1.1,��
2018/09/15,05:10,0.791,1.182,0.833,1.467,1.071,0.465,0.810,0.768,��,0.9,��
2018/09/15,05:20,0.790,1.186,0.834,1.469,1.072,0.464,0.811,0.768,��,2.9,��
2018/09/15,05:30,0.790,1.184,0.833,1.470,1.070,0.464,0.809,0.768,��,2.9,��
2018/09/15,05:40,0.792,1.185,0.836,1.471,1.070,0.464,0.812,0.769,���쐼,0.8,�L
2018/09/15,05:50,0.792,1.186,0.835,1.470,1.072,0.465,0.810,0.769,��,1.2,�L
2018/09/15,06:00,0.793,1.187,0.835,1.468,1.073,0.464,0.811,0.768,�k��,2.6,��
2018/09/15,06:10,0.793,1.187,0.835,1.470,1.072,0.465,0.810,0.768,�k��,3.0,�L
2018/09/15,06:20,0.789,1.184,0.834,1.470,1.073,0.465,0.811,0.770,�k��,2.3,�L
2018/09/15,06:30,0.790,1.186,0.834,1.472,1.071,0.465,0.811,0.768,�k��,1.9,�L
2018/09/15,06:40,0.792,1.184,0.834,1.469,1.075,0.465,0.810,0.769,���k��,0.9,�L
2018/09/15,06:50,0.790,1.184,0.833,1.470,1.073,0.465,0.810,0.769,�k�k��,1.2,�L
2018/09/15,07:00,0.791,1.184,0.836,1.470,1.073,0.466,0.811,0.769,-,CALM,�L
2018/09/15,07:10,0.793,1.184,0.834,1.470,1.073,0.465,0.812,0.770,�k,0.6,�L
2018/09/15,07:20,0.791,1.185,0.835,1.470,1.072,0.465,0.811,0.768,��쓌,0.9,�L
2018/09/15,07:30,0.791,1.184,0.832,1.466,1.073,0.464,0.810,0.769,-,CALM,�L
2018/09/15,07:40,0.791,1.183,0.835,1.469,1.074,0.465,0.810,0.768,�k��,0.6,�L
2018/09/15,07:50,0.790,1.184,0.835,1.467,1.073,0.464,0.809,0.768,���쐼,0.9,�L
2018/09/15,08:00,0.793,1.185,0.834,1.470,1.072,0.465,0.812,0.767,���쐼,0.9,�L
2018/09/15,08:10,0.791,1.185,0.835,1.473,1.075,0.464,0.811,0.770,-,CALM,�L
2018/09/15,08:20,0.789,1.184,0.834,1.470,1.071,0.466,0.810,0.768,��쐼,1.1,�L
2018/09/15,08:30,0.788,1.184,0.834,1.469,1.072,0.465,0.811,0.766,��쐼,1.7,�L
2018/09/15,08:40,0.790,1.179,0.834,1.468,1.071,0.463,0.810,0.769,��쐼,1.2,�L
2018/09/15,08:50,0.789,1.181,0.835,1.469,1.070,0.465,0.810,0.769,���쐼,1.2,�L
2018/09/15,09:00,0.789,1.179,0.831,1.466,1.068,0.465,0.810,0.769,���쐼,1.1,�L
2018/09/15,09:10,0.786,1.179,0.833,1.469,1.068,0.463,0.809,0.767,��,1.2,�L
2018/09/15,09:20,0.786,1.172,0.832,1.467,1.066,0.463,0.808,0.766,���쐼,1.2,�L
2018/09/15,09:30,0.785,1.168,0.828,1.464,1.061,0.463,0.805,0.763,��쐼,8.6,�L
2018/09/15,09:40,0.779,1.158,0.823,1.457,1.052,0.461,0.802,0.759,�k�k��,4.2,�L
2018/09/15,09:50,0.775,1.147,0.823,1.449,1.047,0.460,0.801,0.760,��쓌,1.5,�L
2018/09/15,10:00,0.774,1.141,0.818,1.448,1.047,0.459,0.802,0.760,-,CALM,�L
2018/09/15,10:10,0.774,1.142,0.819,1.446,1.046,0.459,0.801,0.758,��쐼,0.6,�L
2018/09/15,10:20,0.772,1.144,0.820,1.444,1.049,0.459,0.802,0.759,-,CALM,�L
2018/09/15,10:30,0.774,1.143,0.818,1.446,1.048,0.460,0.801,0.759,��,0.6,��
2018/09/15,10:40,0.772,1.146,0.820,1.445,1.047,0.457,0.801,0.758,�k�k��,0.6,��
2018/09/15,10:50,0.773,1.148,0.818,1.445,1.046,0.458,0.801,0.760,�k�k��,0.8,�L
2018/09/15,11:00,0.771,1.145,0.818,1.446,1.044,0.458,0.801,0.758,�쐼,1.4,�L
2018/09/15,11:10,0.771,1.142,0.815,1.442,1.041,0.459,0.799,0.759,���k��,1.2,�L
2018/09/15,11:20,0.771,1.145,0.818,1.442,1.043,0.457,0.799,0.756,�k��,0.8,�L
2018/09/15,11:30,0.771,1.143,0.816,1.442,1.041,0.458,0.798,0.758,���쐼,0.9,�L
2018/09/15,11:40,0.771,1.146,0.817,1.440,1.043,0.458,0.799,0.757,�쓌,1.1,�L
2018/09/15,11:50,0.771,1.140,0.814,1.440,1.042,0.458,0.798,0.755,�쓌,1.9,�L
2018/09/15,12:00,0.768,1.136,0.817,1.438,1.039,0.457,0.798,0.757,�쓌,0.8,�L
2018/09/15,12:10,0.771,1.137,0.817,1.441,1.040,0.457,0.799,0.757,�쓌,1.1,�L
2018/09/15,12:20,0.771,1.139,0.817,1.440,1.038,0.457,0.798,0.757,��,1.7,�L
2018/09/15,12:30,0.771,1.138,0.817,1.438,1.042,0.459,0.800,0.757,��,1.7,�L
2018/09/15,12:40,0.773,1.141,0.815,1.441,1.044,0.458,0.799,0.755,��쓌,1.7,��
2018/09/15,12:50,0.772,1.141,0.817,1.439,1.043,0.459,0.801,0.757,�쓌,2.3,��
2018/09/15,13:00,0.773,1.145,0.816,1.440,1.045,0.458,0.799,0.757,�쓌,2.6,��
2018/09/15,13:10,0.773,1.146,0.816,1.441,1.044,0.458,0.801,0.757,��,0.8,��
2018/09/15,13:20,0.773,1.148,0.816,1.442,1.047,0.458,0.800,0.757,���쓌,1.5,��
2018/09/15,13:30,0.773,1.148,0.816,1.440,1.047,0.457,0.800,0.758,��,1.5,��
2018/09/15,13:40,0.776,1.145,0.817,1.440,1.048,0.457,0.802,0.758,���k��,1.5,��
2018/09/15,13:50,0.774,1.149,0.818,1.438,1.050,0.458,0.802,0.759,�k��,1.7,��
2018/09/15,14:00,0.772,1.147,0.817,1.441,1.050,0.457,0.803,0.759,���k��,1.7,�L
2018/09/15,14:10,0.773,1.147,0.817,1.442,1.049,0.459,0.802,0.759,���k��,1.9,�L
2018/09/15,14:20,0.774,1.149,0.819,1.440,1.051,0.460,0.802,0.758,��,1.2,��
2018/09/15,14:30,0.774,1.152,0.817,1.441,1.052,0.459,0.803,0.759,��,1.5,��
2018/09/15,14:40,0.775,1.148,0.818,1.441,1.053,0.458,0.804,0.761,��,2.2,��
2018/09/15,14:50,0.775,1.154,0.819,1.444,1.050,0.459,0.804,0.759,��,2.0,��
2018/09/15,15:00,0.776,1.155,0.819,1.445,1.050,0.459,0.804,0.759,���k��,1.5,��
2018/09/15,15:10,0.775,1.155,0.819,1.446,1.050,0.461,0.803,0.760,�k��,1.7,��
2018/09/15,15:20,0.774,1.156,0.820,1.445,1.053,0.461,0.804,0.759,��,1.7,��
2018/09/15,15:30,0.776,1.157,0.820,1.443,1.052,0.458,0.804,0.762,���k��,1.5,��
2018/09/15,15:40,0.775,1.158,0.821,1.443,1.053,0.460,0.803,0.760,���k��,1.5,��
2018/09/15,15:50,0.774,1.159,0.817,1.446,1.052,0.459,0.804,0.760,���k��,2.5,��
2018/09/15,16:00,0.776,1.162,0.819,1.443,1.054,0.459,0.804,0.761,��,1.4,��
2018/09/15,16:10,0.774,1.160,0.817,1.446,1.052,0.460,0.804,0.761,��,1.2,��
2018/09/15,16:20,0.775,1.161,0.821,1.444,1.053,0.459,0.804,0.760,�k��,1.5,��
2018/09/15,16:30,0.776,1.164,0.821,1.446,1.054,0.460,0.804,0.761,���k��,2.0,��
2018/09/15,16:40,0.777,1.161,0.819,1.446,1.054,0.458,0.803,0.759,�k��,1.7,��
2018/09/15,16:50,0.777,1.163,0.819,1.446,1.051,0.458,0.804,0.760,�k��,2.6,��
2018/09/15,17:00,0.776,1.162,0.818,1.446,1.051,0.459,0.802,0.759,�k��,3.3,��
2018/09/15,17:10,0.775,1.162,0.819,1.448,1.052,0.459,0.803,0.759,���k��,3.2,��
2018/09/15,17:20,0.774,1.163,0.819,1.445,1.053,0.460,0.802,0.759,�k��,3.1,��
2018/09/15,17:30,0.775,1.166,0.819,1.449,1.055,0.460,0.803,0.761,�k��,2.8,��
2018/09/15,17:40,0.777,1.162,0.821,1.448,1.056,0.462,0.805,0.761,���k��,2.0,��
2018/09/15,17:50,0.777,1.166,0.823,1.447,1.057,0.461,0.804,0.762,���k��,1.4,��
2018/09/15,18:00,0.776,1.169,0.823,1.448,1.057,0.461,0.806,0.763,�k�k��,1.2,��
2018/09/15,18:10,0.778,1.164,0.824,1.451,1.056,0.461,0.804,0.764,�k,0.9,��
2018/09/15,18:20,0.777,1.165,0.824,1.452,1.058,0.461,0.805,0.764,�k��,1.5,��
2018/09/15,18:30,0.779,1.168,0.825,1.449,1.058,0.460,0.805,0.764,���k��,1.9,��
2018/09/15,18:40,0.778,1.167,0.824,1.453,1.058,0.461,0.805,0.763,���k��,2.5,��
2018/09/15,18:50,0.776,1.165,0.823,1.451,1.059,0.460,0.804,0.763,���k��,2.0,��
2018/09/15,19:00,0.781,1.169,0.823,1.452,1.057,0.461,0.804,0.763,���k��,2.0,��
2018/09/15,19:10,0.779,1.164,0.823,1.454,1.058,0.462,0.804,0.764,���k��,1.9,��
2018/09/15,19:20,0.777,1.167,0.822,1.452,1.059,0.459,0.805,0.763,���k��,1.4,��
2018/09/15,19:30,0.779,1.165,0.824,1.453,1.058,0.462,0.806,0.762,�k��,0.9,��
2018/09/15,19:40,0.780,1.168,0.823,1.452,1.059,0.462,0.806,0.763,�k,0.9,��
2018/09/15,19:50,0.778,1.166,0.823,1.452,1.059,0.459,0.806,0.764,�k�k��,0.9,��
2018/09/15,20:00,0.779,1.164,0.824,1.455,1.060,0.462,0.805,0.765,�k��,1.2,��
2018/09/15,20:10,0.778,1.166,0.823,1.453,1.058,0.462,0.803,0.763,�k��,1.9,��
2018/09/15,20:20,0.780,1.166,0.822,1.453,1.057,0.461,0.805,0.763,�k�k��,2.0,��
2018/09/15,20:30,0.779,1.165,0.823,1.454,1.057,0.460,0.806,0.764,�k��,2.5,��
2018/09/15,20:40,0.778,1.165,0.824,1.455,1.057,0.460,0.805,0.763,�k��,2.3,��
2018/09/15,20:50,0.782,1.167,0.824,1.455,1.060,0.462,0.806,0.761,���k��,2.6,��
2018/09/15,21:00,0.779,1.165,0.823,1.453,1.059,0.460,0.805,0.765,���k��,3.0,��
2018/09/15,21:10,0.778,1.168,0.823,1.456,1.060,0.460,0.804,0.764,���k��,2.3,��
2018/09/15,21:20,0.780,1.167,0.823,1.453,1.058,0.461,0.805,0.762,���k��,1.9,��
2018/09/15,21:30,0.779,1.166,0.825,1.458,1.057,0.460,0.806,0.763,���k��,1.9,��
2018/09/15,21:40,0.779,1.167,0.825,1.456,1.059,0.459,0.805,0.763,�k��,2.0,��
2018/09/15,21:50,0.779,1.168,0.826,1.457,1.059,0.460,0.805,0.762,���k��,1.9,��
2018/09/15,22:00,0.780,1.166,0.824,1.453,1.059,0.460,0.807,0.763,���k��,2.3,��
2018/09/15,22:10,0.779,1.167,0.823,1.455,1.059,0.459,0.803,0.764,���k��,2.0,��
2018/09/15,22:20,0.780,1.167,0.825,1.457,1.058,0.460,0.805,0.764,��,1.5,��
2018/09/15,22:30,0.779,1.167,0.825,1.458,1.059,0.459,0.806,0.764,��,2.0,��
2018/09/15,22:40,0.780,1.166,0.824,1.457,1.060,0.461,0.805,0.764,��,2.3,��
2018/09/15,22:50,0.781,1.167,0.823,1.455,1.061,0.460,0.806,0.764,��,2.6,��
2018/09/15,23:00,0.780,1.165,0.825,1.455,1.058,0.460,0.805,0.764,��,2.9,��
2018/09/15,23:10,0.780,1.166,0.823,1.458,1.059,0.462,0.807,0.764,��,2.6,��
2018/09/15,23:20,0.782,1.166,0.824,1.459,1.060,0.461,0.807,0.764,�k��,2.0,��
2018/09/15,23:30,0.780,1.164,0.824,1.458,1.060,0.461,0.806,0.763,�k��,1.2,��
2018/09/15,23:40,0.779,1.168,0.825,1.455,1.060,0.460,0.805,0.765,�k��,1.9,��
2018/09/15,23:50,0.780,1.167,0.826,1.454,1.060,0.460,0.807,0.765,�k��,1.9,��
